Temp
69 69 69 69 69 70 70 69 67 64 65 68 68 72 72 72 73 73 73 72 72 72 71 70 71 72 73 75 77 77 77 77 77 77 77 77 78 79
68 68 68 69 69 68 68 69 69 67 65 69 69 71 72 74 74 72 73 72 72 72 70 70 70 71 72 73 73 73 74 76 75 75 75 75 75 76
65 65 67 68 68 68 68 68 67 68 66 67 69 71 71 71 73 73 73 71 72 70 70 70 69 69 70 71 71 72 73 73 73 73 73 74 74 74
63 64 65 68 66 67 67 67 66 67 66 64 66 68 69 71 71 71 72 73 71 72 70 69 69 68 68 68 68 69 70 70 71 71 72 72 73 73
63 63 64 64 64 64 65 66 66 67 66 65 65 67 68 70 70 70 71 71 74 73 68 68 68 68 67 66 66 66 66 67 68 67 68 69 71 72
65 64 64 64 64 64 65 64 65 65 65 64 64 64 66 67 68 67 67 70 70 75 74 70 70 70 69 67 66 65 64 63 63 63 64 65 67 69
64 65 66 68 68 66 64 63 64 64 64 63 63 62 63 63 64 65 65 66 68 70 70 71 71 71 71 68 69 67 66 64 62 61 61 62 63 64
61 62 64 64 63 64 65 66 65 62 62 62 63 62 63 63 63 64 64 63 63 70 68 69 72 71 72 71 69 67 65 64 63 62 61 60 61 62
57 58 62 65 60 59 61 62 63 65 66 62 62 63 63 64 65 64 63 64 65 69 69 67 70 69 71 72 67 65 64 62 62 62 61 60 60 60
55 56 56 57 57 60 57 57 58 60 61 64 61 64 63 63 63 66 66 66 65 67 68 65 68 67 70 71 67 65 63 62 62 61 60 59 57 57
54 54 56 56 59 59 54 52 54 56 63 64 65 65 65 66 66 63 63 64 64 63 66 65 65 65 66 68 70 65 63 61 60 60 60 58 56 55
51 53 58 57 57 56 55 54 52 53 55 57 59 62 63 63 66 64 64 63 63 62 65 64 63 63 62 65 66 69 68 60 58 58 58 58 57 61
51 52 53 56 54 54 56 56 55 58 60 55 57 59 60 62 61 63 65 65 63 63 66 65 63 62 62 62 65 68 67 66 66 62 55 56 55 60
50 51 52 54 52 53 54 55 56 58 58 59 59 59 59 61 64 64 64 65 66 67 67 66 64 64 62 61 62 65 68 68 67 67 66 58 53 55
50 54 54 53 52 52 54 53 54 54 53 52 52 55 59 63 62 62 63 64 64 65 67 65 65 65 63 62 62 63 63 66 67 66 66 64 62 59
52 47 53 53 53 53 51 51 50 51 49 48 49 53 56 59 58 59 59 60 61 61 65 65 65 64 63 64 64 64 64 63 66 66 66 65 64 63
48 45 45 45 47 47 48 48 49 51 49 49 49 49 50 53 57 59 59 59 58 58 60 62 64 63 64 65 61 64 63 63 65 65 66 66 66 66
44 42 42 43 44 44 46 47 48 49 49 49 48 47 47 49 50 54 58 57 57 59 59 61 61 61 60 62 66 64 61 63 63 64 64 65 66 68
41 41 41 41 42 42 43 47 47 48 49 48 48 48 48 47 48 51 54 57 56 56 59 58 59 60 58 58 61 61 63 62 62 61 63 64 68 68
41 41 41 41 41 42 43 43 47 48 47 47 47 47 47 47 46 47 49 50 53 55 54 56 57 59 57 57 58 63 57 62 61 61 61 62 63 61
45 42 43 42 41 42 43 46 47 47 46 46 46 45 46 46 45 46 48 48 49 52 52 53 56 59 59 60 59 59 63 57 62 64 61 60 60 61
48 45 45 43 42 43 43 44 47 47 47 46 45 45 45 45 45 45 46 45 46 48 51 54 55 54 55 56 56 58 58 61 59 56 56 60 60 58
50 47 46 45 44 44 44 44 46 46 46 46 45 45 45 44 45 44 44 44 45 46 48 48 50 53 52 53 55 57 58 59 60 59 59 56 57 57
MSLP
1012.15 1011.86 1011.62 1011.19 1010.95 1010.82 1010.94 1011.24 1011.27 1011.28 1010.64 1010.40 1010.93 1010.42 1010.06 1009.83 1009.82 1010.00 1009.81 1009.79 1010.01 1009.56 1009.78 1010.05 1010.22 1010.68 1010.80 1010.55 1010.57 1010.78 1011.34 1011.70 1012.31 1012.59 1013.03 1013.36 1013.80 1014.16
1012.40 1012.07 1011.77 1011.39 1011.00 1010.80 1010.76 1010.73 1010.86 1011.07 1010.91 1010.32 1010.44 1009.91 1009.62 1009.45 1009.31 1009.28 1009.07 1008.79 1009.38 1008.62 1008.74 1009.07 1009.03 1009.59 1009.75 1010.15 1010.28 1010.18 1010.44 1010.83 1011.14 1011.60 1011.87 1012.28 1012.78 1013.24
1012.73 1012.50 1012.08 1011.67 1011.27 1010.76 1010.51 1010.45 1010.60 1010.87 1010.87 1010.26 1009.90 1009.49 1009.35 1009.06 1008.85 1008.74 1008.81 1008.85 1008.93 1008.48 1008.14 1008.05 1008.10 1007.78 1008.64 1009.13 1009.11 1009.49 1009.75 1009.92 1010.24 1010.54 1010.88 1011.22 1011.68 1012.22
1013.18 1012.79 1012.45 1011.94 1011.54 1011.04 1010.79 1010.58 1010.37 1010.36 1010.59 1010.25 1009.70 1009.24 1008.89 1008.59 1008.47 1008.49 1008.43 1008.43 1008.34 1008.03 1007.86 1007.88 1007.75 1007.71 1007.95 1008.00 1007.93 1008.29 1008.44 1008.75 1009.05 1009.42 1009.83 1010.17 1010.58 1011.16
1013.27 1013.00 1012.61 1012.18 1011.77 1011.33 1010.95 1010.69 1010.45 1010.21 1010.09 1010.05 1009.60 1009.11 1008.75 1008.40 1008.10 1007.89 1007.72 1007.63 1007.37 1007.19 1007.13 1007.23 1007.03 1006.82 1007.01 1007.01 1007.08 1007.41 1007.83 1007.90 1008.00 1008.37 1008.82 1009.23 1009.64 1010.14
1013.52 1013.03 1012.60 1012.36 1012.07 1011.60 1011.12 1010.73 1010.41 1010.14 1009.82 1009.75 1009.52 1009.12 1008.68 1008.11 1007.95 1007.78 1007.51 1007.10 1006.78 1006.33 1006.07 1005.94 1005.88 1005.83 1005.80 1006.14 1006.30 1006.63 1005.40 1007.06 1007.20 1007.51 1007.91 1008.34 1008.66 1009.15
1013.82 1013.43 1012.87 1012.55 1012.38 1012.09 1011.72 1011.20 1010.56 1010.03 1009.65 1009.50 1009.28 1008.97 1008.52 1008.07 1007.99 1007.60 1007.47 1006.99 1006.36 1005.94 1005.62 1005.40 1005.42 1005.42 1005.21 1005.07 1005.42 1005.74 1006.01 1006.22 1006.34 1006.62 1006.89 1007.40 1007.71 1008.08
1014.49 1013.96 1013.39 1012.97 1012.79 1012.35 1011.96 1011.50 1011.22 1010.73 1010.04 1009.55 1009.07 1008.70 1008.34 1007.99 1007.53 1007.49 1007.31 1007.14 1006.45 1005.21 1005.24 1005.01 1004.64 1004.62 1004.62 1004.63 1004.52 1004.71 1004.82 1005.00 1005.21 1005.69 1005.95 1006.39 1006.73 1007.18
1015.11 1014.55 1013.96 1013.63 1013.35 1012.91 1012.34 1011.75 1011.09 1010.53 1010.31 1009.92 1009.43 1008.68 1008.24 1007.83 1007.64 1007.18 1006.83 1006.61 1006.28 1005.48 1005.21 1004.81 1004.35 1004.20 1003.87 1003.69 1003.66 1003.87 1003.90 1004.25 1004.73 1004.93 1005.29 1005.50 1005.76 1006.15
1015.48 1015.06 1014.71 1014.16 1013.72 1013.28 1012.76 1011.97 1011.34 1010.45 1009.82 1009.43 1009.04 1008.39 1007.93 1007.49 1007.23 1006.88 1006.38 1005.77 1005.32 1004.90 1004.89 1004.65 1004.00 1003.74 1003.41 1003.29 1003.19 1003.39 1003.41 1003.66 1004.09 1004.34 1004.41 1004.78 1005.12 1005.51
1015.51 1015.08 1014.73 1014.27 1013.72 1013.24 1012.78 1012.15 1011.22 1010.00 1009.25 1008.82 1008.47 1008.02 1007.42 1006.71 1006.32 1006.29 1005.65 1005.41 1004.88 1004.47 1004.14 1004.14 1003.63 1003.54 1003.22 1002.79 1002.62 1002.75 1002.90 1003.20 1003.44 1003.55 1003.76 1004.06 1004.24 1004.95
1015.66 1015.22 1014.76 1014.44 1013.89 1013.12 1012.54 1011.97 1011.27 1010.54 1009.54 1008.49 1007.65 1007.10 1006.55 1006.04 1005.53 1005.32 1005.10 1005.03 1004.50 1003.98 1003.41 1003.77 1003.47 1003.38 1003.19 1002.30 1001.98 1002.13 1002.35 1002.49 1002.91 1002.89 1002.95 1003.38 1003.84 1004.49
1015.93 1015.48 1015.12 1014.73 1014.16 1013.52 1013.11 1012.78 1012.10 1010.68 1009.40 1008.66 1007.93 1007.27 1006.49 1005.77 1005.15 1004.68 1004.36 1004.25 1003.89 1003.26 1002.59 1002.96 1003.15 1003.30 1003.22 1002.66 1002.08 1001.95 1002.02 1001.98 1002.29 1002.52 1002.47 1002.66 1003.23 1003.68
1016.02 1015.67 1015.37 1014.94 1014.54 1014.07 1013.51 1012.99 1012.01 1010.96 1010.01 1008.96 1008.36 1007.53 1006.84 1005.99 1005.09 1004.41 1003.78 1003.30 1002.95 1002.57 1001.79 1001.83 1002.30 1002.60 1002.69 1002.61 1002.34 1001.73 1001.76 1001.67 1001.84 1002.05 1002.15 1002.34 1002.84 1003.00
1016.27 1016.13 1015.79 1015.20 1014.60 1014.12 1013.61 1013.06 1012.35 1011.57 1010.76 1009.83 1009.30 1008.42 1007.51 1006.33 1005.43 1004.48 1003.60 1002.89 1002.23 1001.57 1001.29 1001.09 1001.33 1001.54 1001.87 1001.94 1001.94 1001.65 1001.59 1001.24 1001.21 1001.35 1001.37 1001.78 1002.12 1002.72
1016.57 1016.17 1015.73 1015.28 1014.74 1014.27 1013.58 1013.00 1012.70 1012.17 1011.51 1010.85 1010.02 1009.03 1007.88 1006.78 1005.75 1004.96 1004.23 1003.28 1002.38 1001.57 1000.81 1000.69 1000.65 1000.80 1001.03 1001.02 1001.24 1001.20 1001.11 1001.27 1000.66 1000.80 1000.82 1001.19 1001.37 1001.51
1016.51 1015.94 1015.40 1015.03 1014.77 1014.23 1013.65 1013.22 1012.73 1012.07 1011.63 1011.12 1010.38 1009.56 1008.51 1007.40 1006.03 1005.07 1004.43 1003.70 1003.16 1002.43 1001.69 1000.94 1000.46 1000.43 1000.44 1000.30 1000.62 1000.49 1000.46 1000.48 1000.14 1000.38 1000.65 1000.67 1000.54 1000.72
1016.52 1016.45 1015.86 1015.45 1015.11 1014.33 1013.60 1013.13 1012.69 1012.12 1011.58 1010.94 1010.25 1009.60 1008.70 1007.74 1006.94 1005.88 1004.94 1004.19 1003.56 1002.92 1002.30 1001.65 1001.07 1000.36 1000.00 999.50 999.51 999.54 999.66 999.76 999.60 999.70 999.88 999.99 999.88 999.78
1016.72 1016.49 1016.07 1015.54 1014.96 1014.29 1013.68 1012.99 1012.43 1011.83 1011.38 1010.84 1010.25 1009.60 1008.95 1008.28 1007.37 1006.33 1005.24 1004.39 1003.60 1003.17 1002.56 1002.23 1001.47 1001.06 1000.59 1000.18 999.23 998.88 999.07 999.02 999.17 999.25 999.16 999.20 999.13 998.90
1016.18 1015.91 1015.57 1014.90 1014.47 1013.94 1013.31 1012.56 1011.87 1011.41 1011.02 1010.54 1009.95 1009.42 1008.90 1008.32 1007.69 1006.87 1006.01 1005.06 1004.07 1003.30 1002.78 1002.11 1001.45 1001.24 1001.22 1000.79 1000.16 999.03 998.77 998.72 998.70 998.72 998.65 998.60 998.57 998.41
1015.03 1015.02 1014.74 1014.21 1013.77 1013.31 1012.84 1012.26 1011.74 1011.10 1010.67 1010.24 1009.69 1009.13 1008.59 1008.04 1007.35 1006.76 1005.98 1005.19 1004.50 1003.76 1002.84 1002.13 1001.65 1001.33 1001.04 1000.50 999.77 998.94 998.27 997.82 997.64 997.78 997.76 998.09 998.25 998.20
1013.84 1013.60 1013.54 1013.25 1012.89 1012.58 1012.19 1011.85 1011.22 1010.70 1010.07 1009.66 1009.25 1008.74 1008.18 1007.67 1007.04 1006.48 1005.92 1005.22 1004.50 1003.79 1002.82 1002.00 1001.47 1001.32 1000.83 1000.41 999.44 998.65 998.19 997.48 996.97 997.14 997.24 997.23 997.45 997.66
1012.46 1012.48 1012.29 1012.14 1011.95 1011.70 1011.42 1011.10 1010.65 1010.05 1009.69 1009.20 1008.70 1008.18 1007.66 1007.06 1006.51 1006.02 1005.41 1004.79 1004.10 1003.30 1002.64 1001.82 1001.29 1000.63 1000.17 999.89 999.17 998.41 998.06 997.35 996.98 996.95 996.90 996.90 996.96 997.04
Wind_Speed
5 5 3 3 3 2 2 3 5 3 3 1 3 4 4 4 5 5 5 2 8 9 10 9 11 15 19 22 25 26 26 27 26 25 23 22 22 23
5 7 5 3 4 2 2 2 2 4 3 3 7 5 7 6 7 6 5 7 12 14 9 10 15 18 18 24 22 22 23 25 24 24 23 22 21 20
6 6 8 6 4 4 4 2 2 3 4 4 4 5 5 5 7 6 6 8 8 14 11 12 11 11 16 22 20 20 23 24 23 23 23 23 22 22
7 7 7 5 6 5 4 5 4 3 3 6 3 3 5 5 5 5 7 8 9 14 16 16 15 14 15 17 17 20 22 21 22 23 23 22 23 22
6 7 8 7 7 4 4 4 4 3 3 3 4 3 4 4 4 4 5 6 6 12 18 20 16 15 15 16 18 18 19 22 21 20 21 21 22 22
7 6 7 7 8 8 7 6 4 4 3 3 3 4 3 4 3 3 4 3 5 7 12 12 14 17 19 18 15 18 19 19 19 19 20 20 20 21
7 8 8 13 16 13 7 10 10 5 3 3 3 2 3 3 3 2 3 3 5 7 6 7 7 7 7 10 12 18 22 22 20 19 19 19 20 20
9 10 9 11 13 20 21 19 12 8 7 4 3 4 4 3 2 3 3 2 4 3 2 3 4 5 6 5 12 16 19 20 19 19 18 18 18 19
8 8 9 7 10 11 17 18 16 18 11 6 7 4 3 3 5 6 4 4 5 6 3 4 3 4 5 7 14 15 14 13 14 15 16 17 18 19
7 8 8 7 8 16 13 12 11 11 10 8 6 9 6 8 6 8 10 6 4 5 4 4 3 4 3 6 11 13 12 13 14 15 15 15 16 17
8 8 10 11 21 24 11 10 12 13 12 15 14 14 17 17 14 4 6 4 6 4 4 4 3 3 3 4 6 16 15 15 16 14 14 15 13 13
7 9 17 18 22 23 12 11 12 13 13 14 13 14 12 12 15 7 6 7 5 3 4 4 2 3 4 3 3 5 7 10 10 9 10 13 13 5
7 8 7 19 21 21 18 11 14 14 15 8 8 8 9 9 6 5 6 7 6 6 5 4 3 2 3 3 2 3 4 4 6 6 11 12 14 13
9 8 8 16 16 16 14 21 22 15 8 8 9 9 8 9 9 7 7 6 8 12 7 7 4 5 4 2 3 1 4 5 5 6 5 5 8 13
4 8 13 13 14 11 18 20 18 10 9 9 9 9 10 10 10 8 7 7 8 6 6 6 5 5 4 4 4 3 2 3 6 5 5 7 6 4
5 4 6 8 9 11 11 10 7 9 9 8 9 9 10 10 9 6 7 7 4 5 5 7 6 6 4 6 6 7 4 3 2 4 5 3 6 6
5 3 3 4 6 6 7 8 8 9 9 10 8 9 10 10 9 9 7 7 4 4 5 5 4 5 6 6 4 6 5 4 4 4 4 6 6 7
3 3 3 4 5 5 6 7 7 10 8 9 8 8 9 9 10 11 8 4 6 6 5 7 5 3 3 5 11 6 4 4 4 5 4 4 5 6
1 3 4 4 4 5 4 5 7 7 9 8 8 8 8 8 12 10 9 8 7 7 7 5 6 5 5 5 4 8 5 4 3 3 5 5 7 6
4 5 5 4 4 5 5 4 5 6 7 8 8 8 8 7 8 8 9 10 8 7 6 6 4 4 4 6 7 9 12 5 4 4 3 3 3 3
7 5 5 5 5 5 5 6 6 5 6 7 7 8 8 8 8 8 9 12 11 9 10 9 6 9 6 7 7 6 4 13 11 8 4 4 3 2
9 7 7 6 5 6 6 5 6 7 5 5 7 7 7 7 9 10 9 10 9 9 10 8 8 6 5 7 9 9 4 5 4 12 8 7 5 5
9 7 7 7 6 7 6 6 7 8 7 6 6 7 8 8 8 9 10 10 10 10 10 10 9 7 7 8 11 8 10 8 3 3 3 5 8 8
Wind_Direction
331 338 328 324 341 328 200 206 210 250 264 349 252 231 264 264 242 208 173 182 255 250 227 249 255 250 249 237 227 223 220 223 222 220 223 227 230 233
348 352 344 315 314 290 246 235 214 235 279 218 220 219 209 225 214 200 211 235 247 256 222 205 221 235 235 242 242 227 224 223 217 217 215 217 222 225
352 352 345 336 322 321 311 277 233 187 240 276 243 238 226 241 251 201 216 209 227 230 213 226 227 233 237 237 235 233 232 223 219 215 213 213 213 218
342 351 341 343 342 322 305 293 283 250 221 271 260 255 234 231 235 213 209 222 224 231 229 224 229 226 226 232 233 232 227 222 219 216 214 211 211 213
344 341 332 340 335 330 312 290 271 257 224 238 280 259 260 242 265 253 236 226 224 227 227 226 230 241 234 224 228 233 235 229 223 218 216 211 211 212
334 338 331 350 355 345 342 337 312 282 259 238 262 264 251 267 231 239 275 252 252 239 234 224 222 238 251 236 231 225 231 224 217 213 214 212 210 212
349 357 360 24 18 15 4 346 345 321 301 272 261 251 267 293 261 270 256 267 268 235 242 240 238 240 255 244 239 226 224 221 218 214 213 213 209 207
355 350 343 34 7 5 -0 353 353 352 338 317 303 289 275 257 264 247 259 287 302 252 243 276 210 212 228 222 225 226 219 214 213 219 214 215 212 211
352 347 351 7 16 1 346 341 335 332 327 309 310 292 296 301 303 290 238 223 248 266 220 252 209 238 220 230 217 214 203 213 221 218 221 220 217 212
348 353 343 342 334 347 338 327 317 311 309 307 288 285 273 287 270 271 276 254 266 258 223 241 212 235 231 228 210 211 201 209 216 221 218 222 220 216
351 346 354 350 345 341 337 320 314 310 306 296 286 281 280 280 268 276 280 254 271 251 210 213 225 250 236 226 219 212 210 210 218 216 220 215 211 214
346 345 352 355 350 345 349 340 332 314 309 312 311 307 298 288 281 234 258 261 254 285 234 188 204 183 299 269 226 230 217 215 234 224 204 208 205 197
353 350 345 352 355 349 355 353 335 321 332 299 296 300 297 292 284 267 236 235 243 245 224 171 199 201 228 280 283 213 197 196 197 223 209 204 199 204
358 344 334 341 348 352 355 349 347 341 342 346 350 341 329 319 312 298 282 252 237 246 238 190 208 192 194 249 253 283 236 226 195 212 200 180 206 214
341 346 336 343 344 347 352 356 354 351 350 352 340 329 326 322 312 320 311 290 273 258 237 196 195 202 191 211 238 233 253 239 204 220 185 193 185 183
318 311 342 341 345 347 349 355 352 350 349 341 326 318 318 324 325 339 324 325 307 310 295 243 229 204 212 223 222 249 212 243 226 218 218 201 186 187
318 302 341 349 355 353 352 342 341 344 341 336 329 327 325 315 322 320 314 320 312 305 310 312 277 229 246 225 218 235 240 234 223 224 187 220 219 212
2 318 322 330 329 329 343 343 334 335 328 323 323 324 321 328 324 322 317 329 326 338 340 337 324 312 331 272 204 236 217 223 236 227 215 205 241 215
233 271 263 277 282 293 305 331 322 320 319 316 315 319 321 316 322 314 311 316 320 320 316 306 326 347 325 287 291 218 233 221 231 240 216 209 241 234
231 234 251 256 272 277 280 282 298 312 315 317 315 314 314 309 311 307 310 319 315 303 289 298 313 311 334 312 307 289 217 248 200 230 237 217 244 307
243 236 240 245 252 260 269 280 282 287 298 302 310 310 308 306 304 305 305 308 301 293 299 296 295 316 292 292 270 270 269 229 229 222 213 190 209 202
252 226 238 240 242 250 258 261 276 281 281 288 292 295 299 298 296 297 297 294 291 288 289 287 298 284 279 271 273 283 277 277 247 244 254 206 175 212
249 231 237 239 240 249 254 254 263 274 276 279 284 291 295 295 290 282 281 279 277 275 273 275 272 262 266 256 261 276 275 268 230 247 257 241 253 265